Weather in Shuurmak

Russia / Tyva Republic     50°39′03″N   95°19′35″E
temp.,
°C
wind,
m/s
gust,
m/s
humid.,
%
clouds,
%
prec.,
mm/h
press.,
hPa
HPBL,
m
27 february, sat
sat2701:00−22sw018395 0.0 103520
04:00−25nnw119089 0.0 103620
07:00−25n119990 0.0 103833
10:00−21nne2294100 0.1 1038267
13:00−17nne218097 0.1 1036572
16:00−17nne2182100 0.1 1034572
19:00−22n01100100 0.1 103620
22:00−22ssw1195100 0.0 103820
28 february, sun
sun2801:00−24sw019098 0.0 103920
04:00−25sw118685 0.0 104120
07:00−26ssw118162 0.0 104419
10:00−18sse01738 0.0 1044241
13:00−14sw23675 0.0 1042760
16:00−14sw24640 0.0 1040652
19:00−22ssw338117 0.0 104240
22:00−23ssw44790 0.0 104377
1 march, mon
mon101:00−22ssw45798 0.0 104191
04:00−20ssw357985 0.0 1040143
07:00−21ssw467690 0.0 1039153
10:00−16ssw486597 0.0 1036412
13:00−13ssw5106298 0.0 1031608
16:00−13ssw5965100 0.0 1028515
19:00−16ssw5772100 0.0 1028235
22:00−15ssw5773100 0.0 1027241
2 march, tue
tue201:00−15sw5874100 0.0 1025239
04:00−15ssw4775100 0.0 1024211
07:00−14sw4678100 0.0 1024179
10:00−13ssw4681100 0.0 1024266
13:00−9sw467590 0.0 1022391
16:00−10sw4677100 0.0 1021341
19:00−14sw458296 0.0 1022129
22:00−14ssw3481100 0.0 102383
3 march, wed
wed301:00−14ssw3379100 0.0 102263
04:00−13ssw3479100 0.0 102097
07:00−12ssw3378100 0.0 101969
10:00−10sw3576100 0.0 1017293
13:00−7sw2474100 0.0 1015446
16:00−8ssw3480100 0.0 1014324
19:00−11ssw3488100 0.1 1015105
22:00−12ssw3395100 1.3 1017101